Reflectivity
-20 -20 -20 -20 -20 -20 -20 -20 -20 -20 -20 -20 -20 -20 -20 -20 -20 -20 -20 -20 -20 -20 -20 -20 -20 -20 -20 -19 -20 -20 16 27 21 13 -20 -20 -20 -20 -20 -9 -20 -20 -20 -20 -20
-20 -20 -20 -20 -20 -20 -20 -20 -20 -20 -20 -20 -20 -20 -20 -20 -20 -20 -20 -20 -20 -20 -20 -20 -20 -20 -20 -20 -20 10 -12 6 12 7 -20 -20 -20 -20 -20 -20 -20 -20 -20 -20 -20
-20 -20 -20 -20 -20 -20 -20 -20 -20 -20 -20 -20 -20 -20 -20 -20 -20 -20 -20 -20 -20 -20 -20 -20 -20 -20 -20 -20 -20 -20 4 9 -20 -20 -20 -20 -20 -20 -20 -20 -20 -20 -20 -20 -20
-20 -20 -20 -20 -20 -20 -20 -20 -20 -20 -20 -20 -20 -20 -20 -20 -20 -20 -20 -20 -20 -20 -20 -20 -20 -20 -20 -17 -15 -20 -20 -4 -17 -20 -20 -20 -20 -18 -20 -20 -20 -20 -20 -20 -20
-20 -20 -20 -20 -20 -20 -20 -20 -20 -20 -20 -20 -20 -20 -20 -20 -20 -20 -20 -20 -20 -20 -20 -20 -20 -20 -20 -20 -20 -20 -20 -20 -20 -20 -20 -20 -20 -20 -20 -20 -20 -20 -20 -20 -20
-20 -20 -20 -20 -20 -20 -20 -20 -20 -20 -20 -20 -20 -20 -20 -20 -20 -20 -20 -20 -20 -20 -20 -20 -20 -20 -20 -20 -20 -20 -20 -20 -20 -20 -20 -20 -20 -20 -20 -20 -20 -20 -20 -20 -20
-20 -20 -20 -20 -20 -20 -20 -20 -20 -20 -20 -20 -20 -20 -20 -20 -20 -20 -20 -20 -20 -20 -20 -20 -20 -20 -20 -20 -20 -20 -20 -20 -20 -20 -20 -20 -20 -20 -20 -20 -20 -20 -20 -20 -20
-20 -20 -20 -20 -20 -20 -20 -20 -20 -20 -20 -20 -20 -20 -20 -20 -20 -20 -20 -20 -20 -20 -20 -20 -20 -20 -20 -20 -20 -20 -20 -20 -20 4 -20 -20 -20 -20 -20 -20 -20 -20 -20 -20 -20
-20 -20 -20 -20 -20 -20 -20 -20 -20 -20 -20 -20 -20 -20 -20 -20 -20 -20 -20 -20 -20 -20 -20 -20 -20 -20 -20 -20 -20 -20 -20 -20 -20 13 -20 -20 -20 -20 -20 -20 -20 -20 -20 -20 -20
-20 -20 -20 -20 -20 -20 -20 -20 -20 -20 -20 -20 -20 -20 -20 -20 -20 -20 -20 -20 -20 -20 -20 -20 -20 -20 -20 -20 -20 -20 -20 -20 -20 -18 -20 -20 -20 -20 -20 -20 -20 -20 -20 -20 -20
-20 -20 -20 -20 -20 -20 -20 -20 -20 -20 -20 -20 -20 -20 -20 -20 -20 -20 -20 -20 -20 -20 -20 -20 -20 -20 -20 -20 -20 -20 -20 -20 -20 -20 -20 -20 -20 -20 -20 -20 -20 -20 -20 -20 -20
-20 -20 -20 -20 -20 -20 -20 -20 -20 -20 -20 -20 -20 -20 -20 -20 -20 -20 -20 -20 -20 -20 -20 -20 -20 -20 -20 -20 -20 -20 -20 -20 -20 -20 -20 -20 -20 -20 -20 -20 -20 -20 -20 -20 -20
-20 -20 -20 -20 -20 -20 -20 -20 -20 -20 -20 -20 -20 -20 -20 -20 -20 -20 -20 -20 -20 -20 -20 -20 -20 -20 -20 -20 -20 -20 -20 -20 -20 -20 -20 -20 -20 -20 -20 -20 -20 -20 -20 -20 -20
-20 -20 -20 -20 -20 -20 -20 -20 -20 -20 -20 -20 -20 -20 -20 -20 -20 -20 -20 -20 -20 -20 -20 -20 -20 -20 -20 -20 -20 -20 -20 -20 -20 -20 -20 -20 -20 -20 -20 -20 -20 -19 0 -20 -20
-20 -20 -20 -20 -20 -20 -20 -20 -20 -20 -20 -20 -20 -20 -20 -20 -20 -20 -20 -20 -20 -20 -20 -20 -20 -20 -20 -20 -20 -20 -20 -20 -20 -20 -20 -20 -20 -20 -20 -9 -13 7 12 5 -20
-20 -20 -20 -20 -20 -20 -20 -20 -20 -20 -20 -20 -20 -20 -20 -20 -20 -20 -20 -20 -20 -20 -20 -20 -20 -20 -20 -20 -20 -20 -20 -20 -20 -20 -20 -20 -20 -17 -13 10 1 -15 -20 -20 -20
-20 -20 -20 -20 -20 -20 -20 -20 -20 -20 -20 -20 -20 -20 -20 -20 -20 -20 -20 -20 -20 -20 -20 -20 -20 -20 -20 -20 -20 -20 -20 -20 -20 -20 -20 -20 -16 12 13 4 7 -15 -20 -20 -20
-20 -20 -20 -20 -20 -20 -20 -20 -20 -20 -20 -20 -20 -20 -20 -20 -20 -20 -20 -20 -20 -20 -20 -20 -20 -20 -20 -20 -20 -20 -20 -20 -20 -20 -20 -20 -20 -20 -19 -15 -3 -20 -20 -20 -20
-20 -20 -20 -20 -20 -20 -20 -20 -20 -20 -20 -20 -20 -20 -20 -20 -20 -20 -20 -20 -20 -20 -20 -20 -20 -20 -20 -20 -20 -20 -20 -20 -20 -20 -20 -20 -20 -20 -20 -20 24 19 39 -12 -20
-20 -20 -20 -20 -20 -20 -20 -20 -20 -20 -16 -20 -20 -20 -20 -20 -20 -20 -20 -20 -20 -20 -20 -20 -20 -20 -20 -20 -20 -20 -20 -20 -20 -20 -20 -20 -20 -3 15 -18 -7 19 25 1 -20
-20 -20 -20 -20 -20 -20 -20 -20 -20 -20 -18 -20 -20 -20 -11 -20 -20 -20 -20 -20 -20 -20 -20 -20 -20 -20 4 -9 -20 -20 -20 -20 -20 -20 -20 -20 -20 -20 -20 9 -5 1 13 -3 -20
-20 -20 -20 -20 -20 -20 -20 -20 -20 -20 -20 -20 -20 -20 -20 -20 -20 -20 -20 -20 -20 -20 -20 -20 -20 -20 -9 -13 -20 -20 -20 -20 -20 -20 -20 -20 -20 -20 -20 -20 16 28 23 -2 -20
-20 -20 -20 -20 -20 -20 -20 -20 -20 -20 -20 -20 -20 -20 -20 -20 -20 -20 -12 -20 -20 -20 -20 -20 -20 -20 -20 -20 -20 -20 -20 -20 -20 -20 -20 -20 -20 -20 -20 -20 12 32 40 15 -20
-20 -20 -20 -20 -20 -20 -20 -20 -20 -20 -20 -20 -20 -20 -20 -20 -20 -20 -20 -20 -20 -20 -20 -20 -20 -20 -20 -20 -20 -20 -20 -20 -20 -20 -20 -20 -20 -20 -20 -20 -20 27 19 16 25
-20 -20 -20 -20 -20 -20 -20 -20 -20 -20 -20 -7 -12 -20 -20 -20 -20 -20 -20 -20 -20 -20 -20 -20 -20 -20 -20 -20 -20 -20 -20 -2 -20 -20 -20 -20 -20 -20 -20 -17 19 16 4 5 8
-20 -20 -20 -20 -20 -20 -20 -20 -20 -20 -20 -20 -20 -20 -20 -20 -20 -20 -20 -20 -20 -20 -20 -19 -20 -20 -20 -20 -20 -20 -20 -20 -20 -20 -20 -20 -20 -6 -20 -20 -20 -20 -20 -14 8
-20 -20 -20 -20 -20 -13 15 -20 -20 -20 -20 -20 -20 -20 -20 -20 -20 -20 -20 -20 -20 -20 -20 -20 -20 -20 -20 -4 -20 -20 -20 -20 -20 -20 -20 -20 -20 -20 -15 -19 -20 -11 19 19 12
Wind_Speed
17 17 16 15 15 15 15 15 15 16 15 15 13 13 12 14 18 4 5 3 2 7 9 9 12 10 9 6 8 8 8 9 10 16 5 7 23 18 15 12 7 4 16 18 16
18 18 17 17 16 16 15 15 16 16 16 15 13 12 11 11 5 6 3 2 2 4 5 8 11 10 4 5 3 5 6 10 11 11 3 6 22 11 5 9 8 17 18 17 17
18 18 18 18 18 16 16 17 16 17 17 15 13 11 9 8 4 3 4 2 3 1 6 9 12 10 8 3 2 2 4 0 8 4 7 7 14 10 13 2 5 19 20 17 16
19 19 19 19 19 18 18 18 18 18 18 16 13 10 9 4 3 3 6 2 4 4 8 9 8 6 4 6 6 6 9 3 4 2 7 7 6 8 13 9 14 15 20 15 14
19 19 20 20 20 20 20 19 18 19 18 15 14 10 2 3 5 5 5 4 3 4 8 10 9 7 6 7 4 3 9 11 6 2 5 0 7 4 11 13 14 13 19 15 11
19 19 20 20 21 20 20 19 18 18 17 14 12 10 2 5 7 9 7 6 9 9 11 7 6 9 7 8 4 6 8 7 8 8 2 10 4 9 9 19 16 16 16 15 13
20 20 20 22 22 22 20 20 19 18 16 13 9 6 4 10 11 10 9 8 8 6 7 7 6 8 11 10 8 7 3 9 9 11 4 7 5 5 8 22 21 19 16 15 13
20 21 21 22 22 23 22 21 21 18 14 10 6 4 7 2 4 11 10 10 5 8 7 7 5 6 4 8 9 5 5 6 6 3 6 9 6 7 8 17 18 19 17 14 10
21 22 22 22 22 23 24 26 22 15 11 9 4 3 8 2 4 7 8 9 8 6 7 7 3 6 7 4 6 6 8 7 2 10 4 3 3 7 10 11 11 13 9 14 13
21 21 22 23 22 22 26 26 7 8 5 6 7 5 5 8 7 8 8 9 3 5 6 6 3 2 5 1 7 6 2 6 6 6 5 4 6 6 9 11 14 11 11 16 15
21 22 23 24 24 20 15 7 2 2 3 8 4 7 5 7 6 6 8 2 7 5 6 8 1 7 13 10 4 7 8 7 3 5 4 2 6 10 7 9 14 12 11 14 14
22 22 23 24 25 21 4 4 5 5 9 12 16 17 17 6 5 7 7 5 6 7 8 6 9 13 9 2 5 6 7 9 8 3 6 5 8 11 5 7 18 15 12 14 9
22 22 23 26 27 7 6 9 8 8 4 9 14 11 12 5 8 9 9 8 8 9 10 9 10 11 2 4 6 5 5 9 4 7 9 4 8 8 6 8 16 14 10 12 14
22 23 22 28 4 7 5 2 7 8 3 8 8 14 13 7 8 18 14 8 6 11 10 8 12 5 3 4 3 6 8 1 6 6 5 2 7 8 7 8 10 16 9 15 17
23 22 23 9 8 5 7 10 7 3 2 8 10 8 8 10 3 7 13 8 12 12 4 11 5 5 4 7 7 8 5 6 6 6 5 12 5 8 5 7 4 13 6 17 16
22 21 22 3 4 9 12 11 4 1 7 1 6 8 10 10 14 7 9 6 8 11 10 11 8 3 6 8 5 6 5 6 5 1 4 6 4 4 2 5 2 20 8 17 16
24 20 11 7 5 10 12 4 2 4 6 5 7 9 10 10 15 11 11 8 7 3 6 9 8 3 5 5 4 2 5 4 6 4 7 6 4 8 6 12 10 14 17 15 16
27 25 8 8 7 8 3 1 4 9 12 8 6 12 14 11 13 15 11 8 10 8 5 7 7 10 7 6 5 6 9 7 3 2 6 3 5 2 14 13 23 6 14 15 15
29 2 4 6 11 4 1 3 7 6 2 13 15 12 10 14 8 11 10 12 11 13 8 3 7 9 11 6 6 4 3 9 2 4 5 5 3 3 13 9 12 13 18 16 15
4 4 7 7 10 3 1 5 9 9 12 10 12 5 2 13 13 12 10 10 12 15 10 10 6 5 8 3 0 2 3 5 5 2 5 5 1 5 7 8 7 7 11 10 14
3 3 5 10 5 1 5 8 6 15 16 6 10 8 6 13 9 9 14 11 16 15 12 9 6 10 1 3 6 3 4 3 5 5 4 3 6 7 13 11 7 10 12 14 15
4 3 5 6 3 4 4 3 5 15 17 3 6 6 6 8 7 9 8 2 6 17 7 10 6 4 8 7 11 9 10 7 6 7 3 4 6 6 5 14 8 15 28 13 15
4 4 2 3 3 6 6 11 16 18 18 2 5 6 7 5 5 9 4 7 14 9 4 3 2 2 11 10 7 4 5 2 1 2 4 2 7 3 7 10 14 15 16 11 14
4 3 1 2 5 6 5 8 13 15 13 5 10 7 7 4 4 6 10 6 6 6 5 5 3 5 7 2 3 3 6 6 4 2 5 4 4 1 4 2 3 7 7 14 11
4 4 4 3 5 9 7 10 14 11 5 4 8 7 7 4 8 5 3 6 3 3 4 5 2 5 7 8 9 12 10 11 8 10 6 10 9 6 4 3 2 2 11 10 12
4 5 6 9 9 8 7 10 12 13 6 6 5 9 6 3 5 6 8 6 4 3 3 3 2 4 5 6 9 15 18 16 11 8 6 14 7 6 4 7 10 3 3 6 10
5 5 4 8 7 3 4 6 5 8 8 7 12 3 4 13 11 8 5 5 3 3 5 3 3 2 5 7 9 8 8 3 5 13 7 3 9 11 8 9 2 4 7 4 9
Wind_Direction
11 7 4 359 357 351 351 340 333 329 328 323 325 321 321 316 301 197 246 239 343 355 340 297 284 261 249 259 226 134 98 237 231 247 146 129 97 104 116 90 61 46 140 144 140
7 3 359 355 355 348 344 333 331 328 324 320 323 321 320 324 277 246 174 188 318 4 296 295 317 323 284 268 335 113 179 199 214 272 81 139 128 128 68 94 84 96 115 138 143
5 360 355 353 351 343 340 332 331 324 320 318 324 318 313 314 286 167 180 245 309 267 255 285 283 289 284 217 209 133 212 178 288 316 7 24 101 143 130 173 185 143 143 153 150
3 357 351 350 345 340 335 330 328 323 316 322 320 313 310 237 45 135 158 201 276 309 278 280 262 271 278 288 130 146 251 215 213 129 21 30 331 143 158 186 161 154 147 155 160
358 353 349 346 340 335 331 327 328 320 316 321 319 321 263 259 242 133 144 190 253 241 236 265 295 285 308 325 149 261 207 224 244 256 167 244 18 1 143 137 147 150 149 158 160
355 350 347 342 336 332 327 322 322 316 314 319 323 324 268 286 120 142 196 171 237 230 278 274 315 330 299 312 7 348 356 346 317 292 63 81 7 52 127 150 157 167 155 165 164
352 348 343 338 333 329 323 317 315 314 308 309 324 300 278 243 135 162 219 220 236 255 296 305 2 350 332 321 314 283 318 288 247 253 142 118 34 140 153 148 151 155 166 171 164
348 344 340 334 329 326 321 315 307 302 293 295 313 287 259 209 332 171 209 255 238 271 274 308 347 301 270 292 323 298 259 268 296 203 167 105 258 230 230 143 158 164 176 167 150
345 341 336 331 328 327 321 310 300 283 263 284 264 224 270 342 253 220 216 241 210 243 269 280 314 236 309 242 313 290 250 240 316 277 283 127 204 239 185 157 156 157 146 137 138
343 339 333 329 327 327 321 299 286 312 216 238 262 324 261 229 184 211 216 253 273 241 267 241 246 241 303 33 236 275 264 323 145 259 226 194 308 187 160 143 146 135 133 135 140
342 337 331 327 323 329 341 350 3 24 233 228 176 256 298 221 100 195 195 161 272 264 248 258 158 242 242 241 286 0 341 336 266 158 120 63 279 280 197 149 142 140 132 139 141
339 335 330 325 319 318 277 271 14 277 301 274 261 252 260 148 195 229 186 186 218 244 239 296 230 250 269 61 24 341 326 304 305 169 117 203 258 269 224 162 148 145 140 144 133
336 334 331 325 316 295 228 266 311 309 277 277 228 238 238 164 243 216 186 205 241 227 253 218 253 228 335 355 343 310 261 282 298 358 345 331 286 263 269 122 145 147 145 152 138
333 332 333 329 326 336 267 330 338 334 315 259 203 228 206 177 248 242 188 187 229 239 245 240 253 224 308 279 258 269 269 239 16 11 267 41 280 294 182 126 111 147 159 138 139
330 330 327 320 304 290 326 334 344 6 315 211 200 161 169 180 257 212 180 187 243 259 226 256 248 256 194 255 229 248 16 6 341 319 354 307 33 293 84 71 110 87 224 148 144
325 325 332 103 206 254 296 301 350 26 244 240 113 177 184 201 239 236 149 174 233 254 273 251 303 236 193 237 278 338 343 342 305 242 342 269 128 300 74 159 205 163 197 145 146
320 314 309 300 234 336 326 346 73 228 281 218 155 169 209 186 225 235 174 184 211 210 286 302 242 240 268 244 222 135 10 328 339 12 220 251 61 240 206 200 172 183 145 144 137
317 309 241 218 266 315 285 33 225 232 254 300 267 184 193 206 210 240 168 185 226 242 215 220 271 219 189 210 196 199 173 163 263 198 245 291 249 295 83 62 45 57 135 123 130
314 189 232 233 215 258 10 199 203 230 188 297 309 187 193 211 188 218 185 198 201 222 214 257 264 266 186 163 173 270 283 218 201 320 8 234 45 330 18 31 77 68 333 134 143
311 278 238 195 168 178 171 253 238 273 307 327 308 146 237 201 209 188 196 204 222 212 204 253 323 355 130 114 316 168 246 15 350 304 278 319 143 218 35 41 83 156 257 223 154
243 269 107 137 140 167 206 231 271 275 286 318 346 342 343 309 235 197 207 210 207 232 206 210 170 280 67 109 219 289 277 254 154 151 191 297 277 205 184 158 171 217 323 206 160
298 268 201 118 126 212 236 247 262 281 303 308 315 295 302 340 310 204 190 248 270 207 223 196 158 238 235 224 199 205 214 172 125 290 247 172 274 132 139 109 97 339 347 229 155
297 271 208 147 217 240 254 248 258 268 277 228 275 306 311 346 349 359 54 32 30 52 45 307 96 34 335 342 337 56 316 208 96 82 259 130 261 167 128 177 142 117 279 348 137
273 250 294 196 259 280 302 287 268 257 261 345 298 309 305 316 310 328 350 29 52 84 59 55 69 138 200 222 239 300 309 302 190 140 251 233 114 317 101 78 48 182 190 33 345
234 295 15 209 235 234 253 288 302 268 189 284 328 273 302 357 328 280 304 326 4 37 54 83 60 30 330 341 328 313 289 265 257 232 186 248 146 210 227 181 343 75 44 20 358
321 351 339 293 293 181 235 259 281 309 139 233 264 295 315 299 302 23 7 40 33 44 76 32 321 17 308 306 303 300 301 300 299 279 288 102 103 165 19 25 48 6 348 278 341
350 335 297 285 309 286 324 309 295 316 308 272 197 277 293 5 347 341 14 18 46 35 27 72 105 91 273 311 308 315 260 311 334 15 319 276 168 165 150 156 52 211 215 249 327